timestamp,surface_pressure_avg,surface_temp_avg,battery_voltage,lat,long
2018-04-13 00:00:00+00:00,278.6114,1.95,12.81,47.84626,-54.09684
2018-04-13 00:10:00+00:00,275.0414,2.0,12.81,47.84626,-54.09684
2018-04-13 00:20:00+00:00,269.1098,2.07,12.81,47.84626,-54.09684
2018-04-13 00:30:00+00:00,264.0264,2.1,12.81,47.84626,-54.09684
2018-04-13 00:40:00+00:00,257.6464,2.1,12.81,47.84626,-54.09684
2018-04-13 00:50:00+00:00,252.1831,2.1,12.81,47.84626,-54.09684
2018-04-13 01:00:00+00:00,246.8698,2.3,12.81,47.84626,-54.09684
2018-04-13 01:10:00+00:00,241.5497,2.3,12.81,47.84626,-54.09684
2018-04-13 01:20:00+00:00,237.0464,2.2,12.81,47.84626,-54.09684
2018-04-13 01:30:00+00:00,232.8981,2.02,12.81,47.84626,-54.09684
2018-04-13 01:40:00+00:00,227.6181,2.06,12.81,47.84626,-54.09684
2018-04-13 01:50:00+00:00,221.6948,2.09,12.81,47.84626,-54.09684
2018-04-13 02:00:00+00:00,218.9015,2.19,12.81,47.84626,-54.09684
2018-04-13 02:10:00+00:00,215.1831,2.3,12.73,47.84626,-54.09684
2018-04-13 02:20:00+00:00,209.2864,2.33,12.81,47.84626,-54.09684
2018-04-13 02:30:00+00:00,203.7331,2.4,12.81,47.84626,-54.09684
2018-04-13 02:40:00+00:00,201.0397,2.39,12.81,47.84626,-54.09684
2018-04-13 02:50:00+00:00,202.5865,2.4,12.81,47.84626,-54.09684
2018-04-13 03:00:00+00:00,199.9765,2.4,12.73,47.84626,-54.09684
2018-04-13 03:10:00+00:00,197.5847,2.5,12.73,47.84626,-54.09684
2018-04-13 03:20:00+00:00,198.9298,2.38,12.81,47.84626,-54.09684
2018-04-13 03:30:00+00:00,199.1997,2.3,12.81,47.84626,-54.09684
2018-04-13 03:40:00+00:00,197.3381,2.42,12.81,47.84626,-54.09684
2018-04-13 03:50:00+00:00,197.0482,2.5,12.81,47.84626,-54.09684
2018-04-13 04:00:00+00:00,201.5864,2.3,12.73,47.84626,-54.09684
2018-04-13 04:10:00+00:00,204.1514,2.33,12.73,47.84626,-54.09684
2018-04-13 04:20:00+00:00,202.6464,2.55,12.81,47.84626,-54.09684
2018-04-13 04:30:00+00:00,206.4398,2.4,12.81,47.84626,-54.09684
2018-04-13 04:40:00+00:00,211.0764,2.2,12.81,47.84626,-54.09684
2018-04-13 04:50:00+00:00,207.8331,2.24,12.81,47.84626,-54.09684
2018-04-13 05:00:00+00:00,206.8798,2.3,12.73,47.84626,-54.09684
2018-04-13 05:10:00+00:00,215.4714,2.25,12.73,47.84626,-54.09684
2018-04-13 05:20:00+00:00,220.1397,2.2,12.81,47.84626,-54.09684
2018-04-13 05:30:00+00:00,218.7881,2.21,12.81,47.84626,-54.09684
2018-04-13 05:40:00+00:00,221.7664,2.2,12.81,47.84626,-54.09684
2018-04-13 05:50:00+00:00,228.2964,2.2,12.81,47.84626,-54.09684
2018-04-13 06:00:00+00:00,230.628,2.2,12.73,47.84626,-54.09684
2018-04-13 06:10:00+00:00,234.6114,2.21,12.73,47.84626,-54.09684
2018-04-13 06:20:00+00:00,243.6031,2.2,12.81,47.84626,-54.09684
2018-04-13 06:30:00+00:00,252.1264,2.2,12.81,47.84626,-54.09684
2018-04-13 06:40:00+00:00,256.0131,2.18,12.81,47.84626,-54.09684
2018-04-13 06:50:00+00:00,260.1448,2.2,12.81,47.84626,-54.09684
2018-04-13 07:00:00+00:00,268.1531,2.2,12.73,47.84626,-54.09684
2018-04-13 07:10:00+00:00,272.4764,2.0,12.73,47.84626,-54.09684
2018-04-13 07:20:00+00:00,274.1331,2.15,12.81,47.84626,-54.09684
2018-04-13 07:30:00+00:00,280.928,2.2,12.73,47.84626,-54.09684
2018-04-13 07:40:00+00:00,288.6814,2.1,12.81,47.84626,-54.09684
2018-04-13 07:50:00+00:00,294.9496,2.0,12.81,47.84626,-54.09684
2018-04-13 08:00:00+00:00,302.3864,2.08,12.73,47.84626,-54.09684
2018-04-13 08:10:00+00:00,308.8898,2.08,12.73,47.84626,-54.09684
2018-04-13 08:20:00+00:00,308.5681,2.08,12.73,47.84626,-54.09684
2018-04-13 08:30:00+00:00,310.8113,2.09,12.73,47.84626,-54.09684
2018-04-13 08:40:00+00:00,317.498,2.05,12.81,47.84626,-54.09684
2018-04-13 08:50:00+00:00,319.3213,2.03,12.81,47.84626,-54.09684
2018-04-13 09:00:00+00:00,317.6029,2.07,12.73,47.84626,-54.09684
2018-04-13 09:10:00+00:00,319.8329,2.06,12.65,47.84626,-54.09684
2018-04-13 09:20:00+00:00,326.8413,2.0,12.73,47.84626,-54.09684
2018-04-13 09:30:00+00:00,328.5964,1.9,12.73,47.84626,-54.09684
2018-04-13 09:40:00+00:00,328.9647,1.97,12.81,47.84626,-54.09684
2018-04-13 09:50:00+00:00,330.7096,1.9,12.81,47.84626,-54.09684
2018-04-13 10:00:00+00:00,333.7312,1.9,12.73,47.84626,-54.09684
2018-04-13 10:10:00+00:00,330.028,1.9,12.65,47.84626,-54.09684
2018-04-13 10:20:00+00:00,330.3762,1.9,12.73,47.84626,-54.09684
2018-04-13 10:30:00+00:00,330.6112,1.9,12.73,47.84626,-54.09684
2018-04-13 10:40:00+00:00,327.5714,1.9,12.81,47.84626,-54.09684
2018-04-13 10:50:00+00:00,323.2881,1.9,12.81,47.84626,-54.09684
2018-04-13 11:00:00+00:00,324.9579,1.9,12.73,47.84626,-54.09684
2018-04-13 11:10:00+00:00,325.2264,1.9,12.65,47.84626,-54.09684
2018-04-13 11:20:00+00:00,319.078,1.9,12.73,47.84626,-54.09684
2018-04-13 11:30:00+00:00,314.8264,1.9,12.73,47.84626,-54.09684
2018-04-13 11:40:00+00:00,309.5364,1.9,12.73,47.84626,-54.09684
2018-04-13 11:50:00+00:00,301.6896,1.9,12.81,47.84626,-54.09684
2018-04-13 12:00:00+00:00,294.3297,1.94,12.73,47.84626,-54.09684
2018-04-13 12:10:00+00:00,292.2748,1.93,12.73,47.84626,-54.09684
2018-04-13 12:20:00+00:00,285.063,1.98,12.73,47.84626,-54.09684
2018-04-13 12:30:00+00:00,277.0847,2.0,12.73,47.84626,-54.09684
2018-04-13 12:40:00+00:00,273.7764,2.0,12.97,47.84626,-54.09684
2018-04-13 12:50:00+00:00,272.5447,2.0,13.05,47.84626,-54.09684
2018-04-13 13:00:00+00:00,264.178,2.01,12.81,47.84626,-54.09684
2018-04-13 13:10:00+00:00,253.8631,2.09,12.73,47.84626,-54.09684
2018-04-13 13:20:00+00:00,247.7248,2.1,12.81,47.84626,-54.09684
2018-04-13 13:30:00+00:00,239.7348,2.1,12.81,47.84626,-54.09684
2018-04-13 13:40:00+00:00,228.5531,2.11,12.81,47.84626,-54.09684
2018-04-13 13:50:00+00:00,220.5648,2.18,12.81,47.84626,-54.09684
2018-04-13 14:00:00+00:00,218.5964,2.2,12.73,47.84626,-54.09684
2018-04-13 14:10:00+00:00,214.6781,2.14,12.73,47.84626,-54.09684
2018-04-13 14:20:00+00:00,209.7331,2.19,12.73,47.84626,-54.09684
2018-04-13 14:30:00+00:00,208.5432,2.18,12.81,47.84626,-54.09684
2018-04-13 14:40:00+00:00,207.9664,2.19,13.05,47.84626,-54.09684
2018-04-13 14:50:00+00:00,205.3931,2.19,12.97,47.84626,-54.09684
2018-04-13 15:00:00+00:00,202.2748,2.2,12.89,47.84626,-54.09684
2018-04-13 15:10:00+00:00,201.1248,2.2,12.81,47.84626,-54.09684
2018-04-13 15:20:00+00:00,197.2748,2.26,12.81,47.84626,-54.09684
2018-04-13 15:30:00+00:00,189.0281,2.3,12.81,47.84626,-54.09684
2018-04-13 15:40:00+00:00,183.9532,2.3,12.81,47.84626,-54.09684
2018-04-13 15:50:00+00:00,185.6782,2.3,12.81,47.84626,-54.09684
2018-04-13 16:00:00+00:00,186.4165,2.2,12.73,47.84626,-54.09684
2018-04-13 16:10:00+00:00,188.3798,2.2,12.73,47.84626,-54.09684
2018-04-13 16:20:00+00:00,192.9731,2.2,12.81,47.84626,-54.09684
2018-04-13 16:30:00+00:00,195.3198,2.2,12.81,47.84626,-54.09684
2018-04-13 16:40:00+00:00,195.6215,2.3,12.81,47.84626,-54.09684
2018-04-13 16:50:00+00:00,197.4581,2.38,12.81,47.84626,-54.09684
2018-04-13 17:00:00+00:00,200.5298,2.37,12.73,47.84626,-54.09684
2018-04-13 17:10:00+00:00,203.8231,2.3,12.73,47.84626,-54.09684
2018-04-13 17:20:00+00:00,206.4198,2.28,12.81,47.84626,-54.09684
2018-04-13 17:30:00+00:00,204.4648,2.2,12.81,47.84626,-54.09684
2018-04-13 17:40:00+00:00,207.2564,2.2,12.81,47.84626,-54.09684
2018-04-13 17:50:00+00:00,212.4381,2.2,12.81,47.84626,-54.09684
2018-04-13 18:00:00+00:00,210.3081,2.2,12.81,47.84626,-54.09684
2018-04-13 18:10:00+00:00,209.3114,2.2,12.73,47.84626,-54.09684
2018-04-13 18:20:00+00:00,216.0714,2.2,12.81,47.84626,-54.09684
2018-04-13 18:30:00+00:00,224.4497,2.2,12.81,47.84626,-54.09684
2018-04-13 18:40:00+00:00,229.1548,2.2,12.81,47.84626,-54.09684
2018-04-13 18:50:00+00:00,233.3365,2.2,12.81,47.84626,-54.09684
2018-04-13 19:00:00+00:00,239.5348,2.21,12.73,47.84626,-54.09684
2018-04-13 19:10:00+00:00,243.3131,2.28,12.73,47.84626,-54.09684
2018-04-13 19:20:00+00:00,249.7914,2.34,12.81,47.84626,-54.09684
2018-04-13 19:30:00+00:00,257.1664,2.35,12.73,47.84626,-54.09684
2018-04-13 19:40:00+00:00,264.2781,2.39,12.81,47.84626,-54.09684
2018-04-13 19:50:00+00:00,269.1264,2.4,12.81,47.84626,-54.09684
2018-04-13 20:00:00+00:00,274.7798,2.4,12.73,47.84626,-54.09684
2018-04-13 20:10:00+00:00,278.4214,2.4,12.73,47.84626,-54.09684
2018-04-13 20:20:00+00:00,289.8247,2.47,12.73,47.84626,-54.09684
2018-04-13 20:30:00+00:00,300.9313,2.49,12.73,47.84626,-54.09684
2018-04-13 20:40:00+00:00,309.1596,2.5,12.81,47.84626,-54.09684
2018-04-13 20:50:00+00:00,313.9763,2.5,12.81,47.84626,-54.09684
2018-04-13 21:00:00+00:00,325.0046,2.5,12.73,47.84626,-54.09684
2018-04-13 21:10:00+00:00,329.9913,2.5,12.73,47.84626,-54.09684
2018-04-13 21:20:00+00:00,331.1313,2.5,12.73,47.84626,-54.09684
2018-04-13 21:30:00+00:00,332.223,2.49,12.73,47.84626,-54.09684
2018-04-13 21:40:00+00:00,340.2097,2.4,12.73,47.84626,-54.09684
2018-04-13 21:50:00+00:00,339.3797,2.4,12.81,47.84626,-54.09684
2018-04-13 22:00:00+00:00,337.3613,2.4,12.73,47.84626,-54.09684
2018-04-13 22:10:00+00:00,344.1746,2.41,12.73,47.84626,-54.09684
2018-04-13 22:20:00+00:00,348.793,2.44,12.73,47.84626,-54.09684
2018-04-13 22:30:00+00:00,344.348,2.47,12.73,47.84626,-54.09684
2018-04-13 22:40:00+00:00,340.5162,2.48,12.73,47.84626,-54.09684
2018-04-13 22:50:00+00:00,346.3112,2.48,12.73,47.84626,-54.09684
2018-04-13 23:00:00+00:00,348.268,2.5,12.73,47.84626,-54.09684
2018-04-13 23:10:00+00:00,340.2297,2.59,12.73,47.84626,-54.09684
2018-04-13 23:20:00+00:00,337.8029,2.6,12.73,47.84626,-54.09684
2018-04-13 23:30:00+00:00,338.0646,2.6,12.73,47.84626,-54.09684
2018-04-13 23:40:00+00:00,331.8146,2.6,12.73,47.84626,-54.09684
2018-04-13 23:50:00+00:00,325.9346,2.6,12.73,47.84626,-54.09684
